SL-16 DEB, 22343

Orbit data source: Space-Track

SL-16 DEB, 22343 is space debris in LEO originally from a launch on Fri, 25 Dec 1992 UTC launched from the Tyuratam Missile And Space Complex (TTMTR). Debris objects in space refer to the collection of defunct objects orbiting the Earth. Examples of debris include non-operational satellites, rocket bodies, and fragments generated from explosions, collisions, or faulty payload assembly.

Loading next visibility...
Identifier
22343, 1992-093AG
Orbit
LEO
Country
Flag of CISCIS
Related business
Manufacturer
Unknown
Mission
Spacecraft
Bus & Motor
Unknown
Mass
Unknown
Launch date (UTC)
1992-12-25 (33 years ago)
Launch vehicle
Unknown
Launch site
Tyuratam Missile And Space Complex (TTMTR)
Object type
Payload
Rocket body
Debris
Shape & HBR
Unknown
Radar Cross Section
Medium (>0.1 m² and <1 m²)

Expand to show TLE details & history
Last TLE update: 21 hours ago

TLE from 21 hours ago
0 SL-16 DEB
1 22343U 92093AG  25242.12259530  .00001112  00000-0  61198-3 0  9992
2 22343  70.9577   6.0478 0094594 263.8167 270.9442 14.11586370675125
Epoch: 2025-08-30T02:56Z
TLE epoch observation values (Epoch: 2025-08-30T02:56:32.233Z)
Latitude
5.90591°
Longitude
161.31674°
Altitude
855.289 km
Speed
7.426 km/s
True Right ascension
12h 16m 02s
True Declination
5° 52' 17"
Sunlit
Object was in daylight at epoch
Visualization orbit readout
Latitude
Unknown
Longitude
Unknown
Altitude
Unknown
Speed
Unknown
Apparent Right ascension
Unknown
Apparent Declination
Unknown
Sunlit
N/A
Visualization observer readout
Local Sidereal Time
16:02:26
Azimuth
Unknown
Elevation
Unknown
Doppler factor
Unknown
Orbital elements
Apogee altitude
920.272 km
Perigee altitude
783.489 km
Semi-major axis
7,230.017 km
Eccentricity
0.00946
Inclination
70.9577°
RAAN
6.0478°
Arg. of periapsis
263.8167°
True anomaly
269.86023°
Mean anomaly
270.9442°
Eccentric anomaly
270.40223°
Mean motion
3.53048 °/min
Orbital period
101.97 mins
BSTAR
0.00061198
Loading maneuver chart data...
Computing Atmospheric mass density...
Loading historical data...
Loading historical data...
Loading historical data...
Loading historical data...
Loading historical data...
Loading historical data...
Loading historical data...

Documentation

Showing up to 5 results
|